Regional Weather Roundup
Issued by NWS

Home | Current Version | Previous Version | Text Only | Print | Product List | Glossary Off
Versions: 1 2 3 4 5 6 7 8 9 10 11 12 13 14 15 16 17 18 19 20 21 22 23 24 25 26 27 28 29 30 31 32 33 34 35 36 37 38 39 40 41 42 43 44 45 46 47 48 49 50

000
ASUS43 KLSX 111207
RWRMO

WEATHER SUMMARY FOR MISSOURI
NATIONAL WEATHER SERVICE SPRINGFIELD MO
600 AM CST SUN DEC 11 2016

NOTE: "FAIR" INDICATES FEW OR NO CLOUDS BELOW 12,000 FEET WITH NO
       SIGNIFICANT WEATHER AND/OR OBSTRUCTIONS TO VISIBILITY.
       CURRENT SKY AND/OR WEATHER CONDITIONS ARE NOT AVAILABLE FOR
       CHILLICOTHE AND FARMINGTON.

MOZ001>031-035>038-043-044-053-054-111300-
...NORTHERN AND WESTERN MISSOURI...

CITY           SKY/WX    TMP DP  RH WIND       PRES   REMARKS
KANSAS CTY INT CLOUDY    40  26  57 SE10      29.75F
6HR MIN TEMP:  38; 6HR MAX TEMP:  42;

KANSAS C DTWN  CLOUDY    43  28  55 SE6       29.76F
6HR MIN TEMP:  40; 6HR MAX TEMP:  43;

LEE`S SUMMIT   CLOUDY    41  28  60 S8        29.78F
6HR MIN TEMP:  37; 6HR MAX TEMP:  41;

ST JOSEPH      CLOUDY    37  24  59 SE8       29.77F
6HR MIN TEMP:  35; 6HR MAX TEMP:  38;

CHILLICOTHE      N/A     38  23  55 SE8       29.83F
6HR MIN TEMP:  35; 6HR MAX TEMP:  38;

KIRKSVILLE     CLOUDY    36  21  55 SE9       29.87F WCI  29
6HR MIN TEMP:  32; 6HR MAX TEMP:  35;


$$
MOZ066>068-077>081-088>096-101>105-111300-
...SOUTHWEST MISSOURI...

CITY           SKY/WX    TMP DP  RH WIND       PRES   REMARKS
SPRINGFIELD    CLOUDY    44  27  51 S12       29.87S
6HR MIN TEMP:  38; 6HR MAX TEMP:  44;

JOPLIN         CLOUDY    48  34  58 S17G28    29.81F
6HR MIN TEMP:  44; 6HR MAX TEMP:  48;

BRANSON        CLOUDY    45  28  53 SE9       29.92R

$$
MOZ032>034-039>042-045>050-055>058-069>072-111300-
...CENTRAL MISSOURI...

CITY           SKY/WX    TMP DP  RH WIND       PRES   REMARKS
COLUMBIA       CLOUDY    41  24  51 S13       29.90F
6HR MIN TEMP:  35; 6HR MAX TEMP:  41;

JEFFERSON CITY CLOUDY    42  24  49 SE7       29.92F
6HR MIN TEMP:  37; 6HR MAX TEMP:  42;

ROLLA          CLOUDY    40  21  46 S16G23    29.92F
6HR MIN TEMP:  34; 6HR MAX TEMP:  40; 6HR PCP: TRACE;

SEDALIA        CLOUDY    43  26  51 S13G23    29.85F
6HR MIN TEMP:  38; 6HR MAX TEMP:  43;

WHITEMAN AFB   CLOUDY    42  28  57 S10       29.82F
WARRENSBURG    CLOUDY    41  28  60 SE12      29.81F
OSAGE BEACH    CLOUDY    41  23  48 S13G20    29.90F

$$
MOZ051-052-059>065-111300-
...EAST CENTRAL MISSOURI...

CITY           SKY/WX    TMP DP  RH WIND       PRES   REMARKS
ST LOUIS INTL  CLOUDY    42  16  34 S13       29.99F
6HR MIN TEMP:  37; 6HR MAX TEMP:  42;

SPIRIT OF STL  CLOUDY    43  16  33 CALM      29.98F
6HR MIN TEMP:  37; 6HR MAX TEMP:  43;

ST CHARLES     CLOUDY    38  22  52 SE8       29.99F
6HR MIN TEMP:  35; 6HR MAX TEMP:  38;


$$
MOZ072>076-082>087-097>100-106>115-111300-
...SOUTH CENTRAL AND SOUTHEAST MISSOURI...

CITY           SKY/WX    TMP DP  RH WIND       PRES   REMARKS
CAPE GIRARDEAU CLOUDY    39  22  50 S13       30.13F
6HR MIN TEMP:  35; 6HR MAX TEMP:  40;

FARMINGTON     CLOUDY    39  19  44 S18G30    30.02F WCI  30
6HR MIN TEMP:  35; 6HR MAX TEMP:  39;

POPLAR BLUFF   CLOUDY    40  24  53 S10       30.10F
6HR MIN TEMP:  37; 6HR MAX TEMP:  40;

WEST PLAINS    CLOUDY    40  22  48 S15G23    29.98F
6HR MIN TEMP:  36; 6HR MAX TEMP:  40;


$$


USA.gov is the U.S. government's official web portal to all federal, state and local government web resources and services.